Time,TemperatureF,DewpointF,PressureIn,WindDirection,WindDirectionDegrees,WindSpeedMPH,WindSpeedGustMPH,Humidity,HourlyPrecipIn,Conditions,Clouds,dailyrainin,SoftwareType,DateUTC
2014-09-18 00:22:00,75.0,60.0,29.79,SSW,195,1.0,7.0,59,0.00,,,0.00,,2014-09-18 07:22:00,
2014-09-18 00:53:00,74.0,59.0,29.79,West,264,5.0,6.0,60,0.00,,,0.00,,2014-09-18 07:53:00,
2014-09-18 01:12:00,73.0,59.0,29.79,WNW,298,0.0,4.0,61,0.00,,,0.00,,2014-09-18 08:12:00,
2014-09-18 01:22:00,73.0,59.0,29.79,WNW,298,0.0,0.0,62,0.00,,,0.00,,2014-09-18 08:22:00,
2014-09-18 01:52:00,72.0,59.0,29.79,WNW,298,0.0,4.0,63,0.00,,,0.00,,2014-09-18 08:52:00,
2014-09-18 02:22:00,71.0,59.0,29.79,WNW,298,0.0,1.0,65,0.00,,,0.00,,2014-09-18 09:22:00,
2014-09-18 02:54:00,70.0,59.0,29.79,WNW,298,0.0,1.0,67,0.00,,,0.00,,2014-09-18 09:54:00,
2014-09-18 03:23:00,69.0,58.0,29.79,WNW,298,0.0,0.0,67,0.00,,,0.00,,2014-09-18 10:23:00,
2014-09-18 03:53:00,68.0,57.0,29.79,WNW,298,0.0,0.0,68,0.00,,,0.00,,2014-09-18 10:53:00,
2014-09-18 04:22:00,68.0,58.0,29.78,WNW,296,0.0,5.0,71,0.00,,,0.00,,2014-09-18 11:22:00,
2014-09-18 04:52:00,68.0,59.0,29.79,WNW,296,1.0,2.0,73,0.00,,,0.00,,2014-09-18 11:52:00,
2014-09-18 05:22:00,68.0,60.0,29.80,SW,229,1.0,7.0,75,0.00,,,0.00,,2014-09-18 12:22:00,
2014-09-18 05:42:00,68.0,60.0,29.80,SW,227,0.0,6.0,75,0.00,,,0.00,,2014-09-18 12:42:00,
2014-09-18 05:52:00,67.0,59.0,29.80,SW,227,2.0,5.0,75,0.00,,,0.00,,2014-09-18 12:52:00,
2014-09-18 06:22:00,67.0,59.0,29.81,SW,227,0.0,2.0,76,0.00,,,0.00,,2014-09-18 13:22:00,
2014-09-18 06:42:00,66.0,58.0,29.81,SW,227,0.0,2.0,76,0.00,,,0.00,,2014-09-18 13:42:00,
2014-09-18 06:52:00,66.0,58.0,29.82,SW,227,0.0,0.0,76,0.00,,,0.00,,2014-09-18 13:52:00,
2014-09-18 07:22:00,66.0,58.0,29.83,SW,227,0.0,0.0,76,0.00,,,0.00,,2014-09-18 14:22:00,
2014-09-18 07:52:00,65.0,58.0,29.84,SW,227,0.0,0.0,77,0.00,,,0.00,,2014-09-18 14:52:00,
2014-09-18 08:22:00,67.0,60.0,29.85,SSE,168,2.0,7.0,79,0.00,,,0.00,,2014-09-18 15:22:00,
2014-09-18 08:54:00,68.0,61.0,29.86,South,182,9.0,12.0,77,0.00,,,0.00,,2014-09-18 15:54:00,
2014-09-18 09:24:00,69.0,60.0,29.86,SW,216,2.0,10.0,74,0.00,,,0.00,,2014-09-18 16:24:00,
2014-09-18 09:43:00,71.0,60.0,29.86,SW,220,5.0,13.0,69,0.00,,,0.00,,2014-09-18 16:43:00,
2014-09-18 09:53:00,73.0,60.0,29.87,WSW,248,10.0,14.0,63,0.00,,,0.00,,2014-09-18 16:53:00,